Location: Buch
(49.7331°N, 12.1098°E)
Time: 00:13:45
(UTC+00:00)

Landsat 7 - Pass Details

Date: 12 May 2021
Orbit: 701 x 703 km, 98.0° (Epoch: 18 June)

Event Time Altitude Azimuth Distance (km) Brightness Sun altitude
Exits shadow 19:27:05 - 151° (SSE) 2,564 6.1 -6.3°
Reaches altitude 10° 19:28:05 10° 150° (SSE) 2,168 5.8 -6.4°
Maximum altitude 19:32:45 59° 71° (ENE) 813 4.0 -7.0°
Drops below altitude 10° 19:37:27 10° 353° (N) 2,184 7.1 -7.6°
Sets 19:39:44 0° 349° (N) 3,106 8.1 -7.9°
